TimeEST,TemperatureF,Dew PointF,Humidity,Sea Level PressureIn,VisibilityMPH,Wind Direction,Wind SpeedMPH,Gust SpeedMPH,PrecipitationIn,Events,Conditions,WindDirDegrees,DateUTC
12:09 AM,37.4,35.6,93,30.01,2.5,Calm,Calm,-,0.00,,Overcast,0,2012-12-08 05:09:00
12:23 AM,37.4,35.6,93,30.00,1.8,Calm,Calm,-,0.00,,Overcast,0,2012-12-08 05:23:00
12:38 AM,37.4,35.6,93,30.00,2.0,Calm,Calm,-,0.01,Rain,Light Rain,0,2012-12-08 05:38:00
12:53 AM,37.0,35.1,93,30.00,2.0,Calm,Calm,-,0.02,,Overcast,0,2012-12-08 05:53:00
1:02 AM,37.4,35.6,93,29.99,1.8,Calm,Calm,-,0.00,,Overcast,0,2012-12-08 06:02:00
1:13 AM,37.4,35.6,93,29.99,2.5,Calm,Calm,-,0.01,,Overcast,0,2012-12-08 06:13:00
1:21 AM,37.4,35.6,93,29.98,3.0,Calm,Calm,-,0.01,,Overcast,0,2012-12-08 06:21:00
1:32 AM,37.4,35.6,93,29.98,2.0,Calm,Calm,-,0.01,Rain,Light Rain,0,2012-12-08 06:32:00
1:44 AM,37.4,35.6,93,29.98,1.5,Calm,Calm,-,0.01,,Overcast,0,2012-12-08 06:44:00
1:51 AM,37.4,35.6,93,29.98,1.2,Calm,Calm,-,0.01,,Overcast,0,2012-12-08 06:51:00
1:53 AM,37.0,36.0,96,29.99,1.2,Calm,Calm,-,0.01,,Overcast,0,2012-12-08 06:53:00
2:04 AM,37.4,35.6,93,29.97,1.2,Calm,Calm,-,0.03,Rain,Rain,0,2012-12-08 07:04:00
2:29 AM,37.4,35.6,93,29.97,1.5,Calm,Calm,-,0.10,Rain,Rain,0,2012-12-08 07:29:00
2:36 AM,37.4,35.6,93,29.97,1.2,Calm,Calm,-,0.11,Rain,Rain,0,2012-12-08 07:36:00
2:53 AM,37.0,36.0,96,29.97,1.5,Calm,Calm,-,0.13,Rain,Light Rain,0,2012-12-08 07:53:00
3:19 AM,37.4,35.6,93,29.96,2.0,Calm,Calm,-,0.01,,Overcast,0,2012-12-08 08:19:00
3:24 AM,37.4,35.6,93,29.96,1.8,Calm,Calm,-,0.01,,Overcast,0,2012-12-08 08:24:00
3:44 AM,37.4,35.6,93,29.95,1.2,Calm,Calm,-,0.03,Rain,Light Rain,0,2012-12-08 08:44:00
3:53 AM,37.0,35.1,93,29.95,1.2,Calm,Calm,-,0.04,,Overcast,0,2012-12-08 08:53:00
4:01 AM,37.4,35.6,93,29.94,1.2,Calm,Calm,-,N/A,,Overcast,0,2012-12-08 09:01:00
4:18 AM,37.4,35.6,93,29.93,1.5,Calm,Calm,-,N/A,,Overcast,0,2012-12-08 09:18:00
4:53 AM,37.0,36.0,96,29.94,1.2,Calm,Calm,-,0.00,,Overcast,0,2012-12-08 09:53:00
5:09 AM,37.4,35.6,93,29.92,1.5,Calm,Calm,-,N/A,,Overcast,0,2012-12-08 10:09:00
5:48 AM,37.4,35.6,93,29.92,1.5,Calm,Calm,-,N/A,,Overcast,0,2012-12-08 10:48:00
6:23 AM,37.4,35.6,93,29.92,1.2,Calm,Calm,-,N/A,,Overcast,0,2012-12-08 11:23:00
6:36 AM,37.4,35.6,93,29.92,1.5,Calm,Calm,-,N/A,,Overcast,0,2012-12-08 11:36:00
6:53 AM,37.9,36.0,93,29.93,1.2,Calm,Calm,-,0.00,Rain,Light Rain,0,2012-12-08 11:53:00
7:10 AM,37.4,35.6,93,29.91,1.5,Calm,Calm,-,0.00,,Overcast,0,2012-12-08 12:10:00
7:28 AM,37.4,35.6,93,29.91,1.2,Calm,Calm,-,0.00,,Overcast,0,2012-12-08 12:28:00
7:53 AM,37.0,36.0,96,29.92,1.0,Calm,Calm,-,0.00,,Overcast,0,2012-12-08 12:53:00
8:03 AM,37.4,35.6,93,29.91,0.5,Calm,Calm,-,N/A,Fog,Fog,0,2012-12-08 13:03:00
8:53 AM,39.0,37.9,96,29.93,1.2,Calm,Calm,-,N/A,,Overcast,0,2012-12-08 13:53:00
9:53 AM,39.9,39.0,97,29.94,1.0,Calm,Calm,-,N/A,,Overcast,0,2012-12-08 14:53:00
10:53 AM,41.0,39.0,93,29.92,1.2,Calm,Calm,-,N/A,,Overcast,0,2012-12-08 15:53:00
11:11 AM,41.0,39.2,93,29.90,1.8,Calm,Calm,-,N/A,,Overcast,0,2012-12-08 16:11:00
11:23 AM,41.0,39.2,93,29.89,2.5,Calm,Calm,-,N/A,,Overcast,0,2012-12-08 16:23:00
11:31 AM,42.8,39.2,87,29.89,3.0,Calm,Calm,-,N/A,,Overcast,0,2012-12-08 16:31:00
11:53 AM,42.1,41.0,96,29.89,4.0,Calm,Calm,-,N/A,,Overcast,0,2012-12-08 16:53:00
12:53 PM,44.1,42.1,93,29.87,5.0,Calm,Calm,-,N/A,,Overcast,0,2012-12-08 17:53:00
1:04 PM,44.6,42.8,93,29.87,6.0,Calm,Calm,-,N/A,,Overcast,0,2012-12-08 18:04:00
1:53 PM,45.0,43.0,93,29.88,4.0,Calm,Calm,-,N/A,,Overcast,0,2012-12-08 18:53:00
2:53 PM,46.9,45.0,93,29.88,4.0,SSW,3.5,-,N/A,,Overcast,200,2012-12-08 19:53:00
3:53 PM,46.9,45.0,93,29.90,6.0,Calm,Calm,-,N/A,,Overcast,0,2012-12-08 20:53:00
4:53 PM,46.0,44.1,93,29.91,4.0,Variable,3.5,-,N/A,,Overcast,0,2012-12-08 21:53:00
5:46 PM,46.4,44.6,93,29.91,3.0,SSW,4.6,-,N/A,,Overcast,210,2012-12-08 22:46:00
5:53 PM,46.0,44.1,93,29.92,3.0,Variable,4.6,-,N/A,,Overcast,0,2012-12-08 22:53:00
6:12 PM,46.4,44.6,93,29.92,2.0,Variable,3.5,-,N/A,,Overcast,0,2012-12-08 23:12:00
6:20 PM,46.4,44.6,93,29.92,1.5,SSW,4.6,-,N/A,,Overcast,200,2012-12-08 23:20:00
6:27 PM,46.4,44.6,93,29.92,1.0,SSW,3.5,-,N/A,,Overcast,210,2012-12-08 23:27:00
6:53 PM,45.0,44.1,97,29.93,1.0,SSW,3.5,-,N/A,,Overcast,200,2012-12-08 23:53:00
7:53 PM,46.0,44.1,93,29.95,1.0,SSW,3.5,-,N/A,,Overcast,200,2012-12-09 00:53:00
8:53 PM,46.0,45.0,96,29.96,1.2,Calm,Calm,-,N/A,,Overcast,0,2012-12-09 01:53:00
9:20 PM,46.4,44.6,93,29.96,1.8,Calm,Calm,-,N/A,,Overcast,0,2012-12-09 02:20:00
9:28 PM,46.4,44.6,93,29.97,2.5,SSW,3.5,-,N/A,,Overcast,200,2012-12-09 02:28:00
10:01 PM,46.4,44.6,93,29.97,3.0,Calm,Calm,-,0.00,,Overcast,0,2012-12-09 03:01:00
10:53 PM,46.0,44.1,93,30.00,3.0,Calm,Calm,-,0.00,,Overcast,0,2012-12-09 03:53:00
11:36 PM,46.4,44.6,93,30.00,3.0,Calm,Calm,-,N/A,,Overcast,0,2012-12-09 04:36:00
11:53 PM,46.0,44.1,93,30.01,2.5,Calm,Calm,-,N/A,,Overcast,0,2012-12-09 04:53:00